| time (UTC) | temp F | wind direction | speed MPH | gust MPH | rain 1hr in | rain 24hr in | rain mn in | humidity % | barometer mb |
| 20260508180252 | 69 | 0 | 0.0 | 3.0 | 0.00 | 0.00 | 0.00 | 66 | 1015.7 |
| 20260508170112 | 70 | 0 | 0.0 | 5.0 | 0.00 | 0.00 | 0.00 | 63 | 1017.0 |
| 20260508164534 | 70 | 0 | 0.0 | 1.0 | 0.00 | 0.00 | 0.00 | 63 | 1017.2 |
| 20260508163031 | 69 | 0 | 0.0 | 3.0 | 0.00 | 0.00 | 0.00 | 64 | 1017.4 |
| 20260508161534 | 69 | 0 | 1.0 | 4.0 | 0.00 | 0.00 | 0.00 | 61 | 1017.5 |
| 20260508160036 | 69 | 90 | 0.0 | 4.0 | 0.00 | 0.00 | 0.00 | 65 | 1017.3 |
| 20260508154534 | 69 | 17 | 1.0 | 4.0 | 0.00 | 0.00 | 0.00 | 63 | 1017.3 |
| 20260508153042 | 68 | 95 | 0.0 | 4.0 | 0.00 | 0.00 | 0.00 | 65 | 1017.7 |
| 20260508151532 | 66 | 5 | 1.0 | 8.0 | 0.00 | 0.00 | 0.00 | 67 | 1017.8 |
| 20260508150037 | 65 | 24 | 1.0 | 6.0 | 0.00 | 0.00 | 0.00 | 71 | 1017.8 |
| 20260508144539 | 63 | 0 | 0.0 | 5.0 | 0.00 | 0.00 | 0.00 | 75 | 1017.8 |
| 20260508143037 | 62 | 0 | 1.0 | 4.0 | 0.00 | 0.00 | 0.00 | 76 | 1017.5 |
| 20260508141532 | 62 | 28 | 2.0 | 6.0 | 0.00 | 0.00 | 0.00 | 77 | 1017.6 |
| 20260508140036 | 61 | 26 | 1.0 | 8.0 | 0.00 | 0.00 | 0.00 | 78 | 1017.9 |
| 20260508134534 | 60 | 0 | 0.0 | 4.0 | 0.00 | 0.00 | 0.00 | 80 | 1018.2 |
| 20260508133054 | 60 | 0 | 0.0 | 2.0 | 0.00 | 0.00 | 0.00 | 80 | 1018.3 |
| 20260508131532 | 59 | 0 | 0.0 | 2.0 | 0.00 | 0.00 | 0.00 | 80 | 1018.3 |
| 20260508130035 | 59 | 47 | 0.0 | 3.0 | 0.00 | 0.00 | 0.00 | 80 | 1018.2 |
| 20260508124534 | 58 | 0 | 0.0 | 2.0 | 0.00 | 0.01 | 0.00 | 80 | 1018.3 |
| 20260508123043 | 57 | 0 | 0.0 | 2.0 | 0.00 | 0.01 | 0.00 | 79 | 1018.1 |
| 20260508121532 | 56 | 0 | 0.0 | 3.0 | 0.00 | 0.01 | 0.00 | 78 | 1018.1 |
| 20260508120037 | 56 | 0 | 0.0 | 2.0 | 0.00 | 0.01 | 0.00 | 76 | 1017.9 |
| 20260508114536 | 55 | 0 | 0.0 | 3.0 | 0.00 | 0.08 | 0.00 | 74 | 1017.5 |
| 20260508113034 | 55 | 0 | 0.0 | 1.0 | 0.00 | 0.08 | 0.00 | 73 | 1017.2 |
| 20260508111534 | 55 | 0 | 0.0 | 2.0 | 0.00 | 0.08 | 0.00 | 73 | 1016.7 |
| 20260508110032 | 55 | 0 | 0.0 | 0.0 | 0.00 | 0.08 | 0.00 | 75 | 1016.7 |
| 20260508104532 | 55 | 0 | 0.0 | 1.0 | 0.00 | 0.08 | 0.00 | 74 | 1016.5 |
| 20260508103033 | 55 | 0 | 0.0 | 0.0 | 0.00 | 0.08 | 0.00 | 75 | 1016.6 |
| 20260508101536 | 55 | 0 | 0.0 | 0.0 | 0.00 | 0.08 | 0.00 | 77 | 1016.6 |
| 20260508100035 | 55 | 0 | 0.0 | 0.0 | 0.00 | 0.08 | 0.00 | 78 | 1016.4 |
| 20260508094534 | 56 | 0 | 0.0 | 0.0 | 0.00 | 0.08 | 0.00 | 79 | 1016.4 |
| 20260508093034 | 56 | 0 | 0.0 | 0.0 | 0.00 | 0.08 | 0.00 | 79 | 1016.4 |
| 20260508091531 | 56 | 0 | 0.0 | 0.0 | 0.00 | 0.08 | 0.00 | 79 | 1016.2 |
| 20260508090035 | 56 | 0 | 0.0 | 3.0 | 0.00 | 0.08 | 0.00 | 79 | 1015.4 |
| 20260508084534 | 56 | 0 | 0.0 | 0.0 | 0.00 | 0.11 | 0.00 | 78 | 1015.0 |
| 20260508083035 | 56 | 0 | 0.0 | 0.0 | 0.00 | 0.11 | 0.00 | 76 | 1015.2 |
| 20260508081535 | 56 | 0 | 0.0 | 0.0 | 0.00 | 0.11 | 0.00 | 74 | 1015.2 |
| 20260508080034 | 56 | 0 | 0.0 | 2.0 | 0.00 | 0.11 | 0.00 | 67 | 1015.2 |
| 20260508074537 | 56 | 0 | 0.0 | 2.0 | 0.00 | 0.14 | 0.00 | 61 | 1015.2 |
| 20260508073034 | 56 | 0 | 0.0 | 0.0 | 0.00 | 0.14 | 0.00 | 63 | 1015.2 |
| 20260508071533 | 57 | 0 | 0.0 | 0.0 | 0.00 | 0.14 | 0.00 | 64 | 1015.7 |
| 20260508070035 | 57 | 0 | 0.0 | 0.0 | 0.00 | 0.14 | 0.00 | 67 | 1015.9 |
| 20260508064535 | 58 | 0 | 0.0 | 0.0 | 0.00 | 0.30 | 0.00 | 68 | 1015.9 |
| 20260508063035 | 58 | 0 | 0.0 | 0.0 | 0.00 | 0.30 | 0.00 | 68 | 1016.0 |
| 20260508061533 | 58 | 0 | 0.0 | 0.0 | 0.00 | 0.30 | 0.00 | 70 | 1016.0 |
| 20260508060032 | 58 | 0 | 0.0 | 0.0 | 0.00 | 0.30 | 0.00 | 70 | 1016.1 |
| 20260508054538 | 58 | 0 | 0.0 | 2.0 | 0.00 | 0.31 | 0.00 | 68 | 1016.2 |
| 20260508053036 | 58 | 0 | 0.0 | 1.0 | 0.00 | 0.31 | 0.00 | 69 | 1016.1 |
| 20260508051536 | 58 | 0 | 0.0 | 0.0 | 0.00 | 0.31 | 0.00 | 71 | 1016.4 |
| 20260508050035 | 59 | 0 | 0.0 | 0.0 | 0.00 | 0.31 | 0.00 | 73 | 1016.5 |
| 20260508044534 | 59 | 0 | 0.0 | 0.0 | 0.00 | 0.32 | 0.31 | 75 | 1016.1 |
| 20260508043038 | 59 | 0 | 0.0 | 0.0 | 0.00 | 0.32 | 0.31 | 77 | 1016.6 |
| 20260508041533 | 60 | 0 | 0.0 | 0.0 | 0.00 | 0.32 | 0.31 | 78 | 1016.5 |
| 20260508040036 | 60 | 0 | 0.0 | 0.0 | 0.00 | 0.32 | 0.31 | 79 | 1016.7 |
| 20260508034543 | 60 | 0 | 0.0 | 0.0 | 0.00 | 0.40 | 0.31 | 80 | 1016.7 |
| 20260508033032 | 61 | 0 | 0.0 | 0.0 | 0.00 | 0.40 | 0.31 | 80 | 1016.3 |
| 20260508031533 | 61 | 0 | 0.0 | 0.0 | 0.00 | 0.40 | 0.31 | 80 | 1016.2 |
| 20260508030042 | 61 | 0 | 0.0 | 2.0 | 0.00 | 0.40 | 0.31 | 80 | 1016.2 |
| 20260508024540 | 62 | 0 | 0.0 | 1.0 | 0.00 | 0.63 | 0.31 | 80 | 1016.1 |
| 20260508023034 | 62 | 0 | 0.0 | 1.0 | 0.00 | 0.63 | 0.31 | 80 | 1016.3 |
| 20260508021534 | 63 | 0 | 0.0 | 3.0 | 0.00 | 0.63 | 0.31 | 80 | 1016.1 |
| 20260508020032 | 63 | 0 | 0.0 | 0.0 | 0.00 | 0.63 | 0.31 | 80 | 1015.9 |
| 20260508014532 | 64 | 0 | 0.0 | 0.0 | 0.00 | 0.65 | 0.31 | 80 | 1015.6 |
| 20260508013031 | 64 | 0 | 0.0 | 0.0 | 0.00 | 0.65 | 0.31 | 80 | 1015.6 |
| 20260508011541 | 65 | 0 | 0.0 | 0.0 | 0.00 | 0.65 | 0.31 | 78 | 1015.4 |
| 20260508010035 | 66 | 0 | 0.0 | 0.0 | 0.00 | 0.65 | 0.31 | 78 | 1015.4 |
| 20260508004532 | 67 | 0 | 0.0 | 2.0 | 0.00 | 0.66 | 0.31 | 75 | 1015.4 |
| 20260508003035 | 68 | 19 | 0.0 | 2.0 | 0.00 | 0.66 | 0.31 | 74 | 1015.1 |
| 20260508001536 | 68 | 0 | 0.0 | 3.0 | 0.00 | 0.66 | 0.31 | 73 | 1015.0 |
| 20260508000033 | 69 | 0 | 0.0 | 7.0 | 0.00 | 0.66 | 0.31 | 72 | 1015.0 |
| 20260507234532 | 70 | 352 | 0.0 | 4.0 | 0.00 | 0.67 | 0.31 | 71 | 1014.9 |
| 20260507233034 | 71 | 0 | 1.0 | 3.0 | 0.00 | 0.67 | 0.31 | 70 | 1014.6 |
| 20260507231547 | 71 | 0 | 0.0 | 3.0 | 0.00 | 0.67 | 0.31 | 68 | 1014.7 |
| 20260507230032 | 72 | 0 | 0.0 | 3.0 | 0.00 | 0.67 | 0.31 | 68 | 1014.5 |
| 20260507224537 | 72 | 318 | 0.0 | 3.0 | 0.00 | 0.67 | 0.31 | 65 | 1014.5 |
| 20260507223034 | 73 | 269 | 0.0 | 5.0 | 0.00 | 0.67 | 0.31 | 67 | 1014.3 |
| 20260507221534 | 73 | 332 | 1.0 | 8.0 | 0.00 | 0.67 | 0.31 | 65 | 1014.5 |
| 20260507220034 | 74 | 0 | 0.0 | 5.0 | 0.00 | 0.67 | 0.31 | 66 | 1014.2 |
| 20260507214534 | 73 | 346 | 0.0 | 8.0 | 0.00 | 0.67 | 0.31 | 68 | 1014.1 |
| 20260507213032 | 72 | 0 | 1.0 | 6.0 | 0.00 | 0.67 | 0.31 | 69 | 1014.3 |
| 20260507211531 | 72 | 342 | 0.0 | 4.0 | 0.00 | 0.67 | 0.31 | 67 | 1014.2 |
| 20260507210035 | 73 | 329 | 1.0 | 9.0 | 0.00 | 0.67 | 0.31 | 66 | 1014.0 |
| 20260507204535 | 72 | 301 | 1.0 | 8.0 | 0.00 | 0.67 | 0.31 | 70 | 1014.1 |
| 20260507203040 | 72 | 0 | 1.0 | 7.0 | 0.00 | 0.67 | 0.31 | 68 | 1014.3 |
| 20260507201538 | 72 | 0 | 0.0 | 5.0 | 0.00 | 0.67 | 0.31 | 70 | 1014.5 |
| 20260507200044 | 73 | 0 | 1.0 | 8.0 | 0.00 | 0.67 | 0.31 | 67 | 1014.8 |
| 20260507194536 | 73 | 305 | 2.0 | 8.0 | 0.00 | 0.67 | 0.31 | 72 | 1014.7 |
| 20260507193035 | 71 | 0 | 3.0 | 8.0 | 0.00 | 0.67 | 0.31 | 72 | 1014.8 |